Wind_Speed
45 44 42 41 39 38 35 33 32 31 30 28 26 24 23 21 20 19 17 17 17 17 16 16 17 17 17 17 17 17 17 17 17 17 17 18 18 18 18 18 18 19 19 19 19 18 18 17 18
46 45 44 43 42 39 36 34 34 33 31 29 28 26 25 23 21 20 19 18 18 18 17 17 17 17 17 16 16 17 17 17 17 17 17 17 18 18 18 18 18 18 19 19 20 20 19 18 18
47 46 46 45 44 40 37 36 37 34 32 31 29 28 26 24 22 21 20 19 19 18 17 17 17 17 16 15 15 16 16 17 17 17 17 17 17 18 18 18 18 18 19 19 19 19 19 19 19
48 48 48 47 43 39 38 39 38 36 34 32 31 29 27 25 23 22 21 20 20 19 18 18 18 18 17 17 16 16 17 18 18 18 18 18 18 18 19 19 19 19 19 19 19 19 19 19 19
48 49 50 48 42 39 39 40 39 37 35 33 32 30 28 25 24 22 21 21 21 20 20 20 20 20 20 19 19 18 19 19 19 20 20 20 20 20 19 19 19 19 20 20 20 20 20 20 20
49 50 51 47 40 38 40 40 39 38 36 34 32 30 28 26 24 23 23 22 22 22 22 22 23 23 22 22 21 21 21 21 21 21 21 21 21 21 20 20 20 20 20 20 20 20 21 21 21
50 50 49 45 40 39 40 41 40 38 36 35 32 31 29 27 26 25 25 25 25 25 25 25 26 25 25 24 24 23 23 22 22 22 22 21 21 21 21 21 21 21 21 21 21 21 21 21 22
49 49 49 45 42 40 41 41 40 39 37 35 33 31 30 28 27 27 27 27 27 28 28 28 28 28 27 26 26 25 24 24 23 23 23 22 22 22 22 22 22 22 22 22 22 22 22 22 22
49 50 48 44 42 41 41 41 40 39 37 36 33 31 30 29 29 29 29 30 30 30 30 30 30 29 29 28 28 27 26 25 25 24 24 23 23 23 23 22 22 22 23 23 23 23 23 23 23
50 50 46 43 42 42 42 42 41 40 38 36 34 32 31 30 30 30 31 31 31 31 31 30 30 30 30 30 29 28 27 27 26 26 25 25 24 24 24 23 23 23 23 24 24 24 24 24 24
51 49 46 43 44 44 44 43 42 40 39 37 34 32 31 31 30 30 30 31 31 30 30 30 30 30 30 30 30 29 29 28 28 27 27 26 26 25 24 24 24 24 24 24 24 24 24 24 24
51 48 46 45 45 45 45 44 42 41 40 37 35 32 31 31 30 30 30 30 30 30 30 30 30 31 31 31 31 30 30 30 30 29 29 28 27 26 26 25 25 25 25 25 25 25 25 25 25
52 49 47 45 45 46 46 45 43 42 41 38 36 33 32 31 30 30 30 30 30 30 31 31 31 32 32 32 32 32 32 32 32 31 31 30 29 28 28 27 27 27 27 27 27 26 26 27 27
51 49 47 46 45 45 46 46 45 42 42 40 38 35 34 32 31 31 30 30 31 31 32 32 32 33 33 33 33 34 34 34 34 34 33 33 32 31 30 30 29 29 29 29 28 28 27 27 27
51 49 47 46 45 45 46 46 45 43 43 41 39 37 35 34 33 32 32 32 32 33 33 34 34 34 34 34 35 35 35 36 36 36 36 35 35 34 33 32 32 31 31 31 30 29 29 28 28
52 51 47 45 44 43 45 44 44 43 43 42 41 39 37 35 34 34 34 33 34 34 34 35 35 35 35 36 37 37 38 38 38 38 38 38 37 37 37 36 35 35 34 33 32 32 31 31 30
51 50 47 43 42 42 43 43 42 42 42 42 41 40 38 37 36 35 35 35 35 35 35 36 37 37 37 38 39 40 40 40 41 41 40 40 41 40 40 40 39 39 38 36 36 35 34 33 33
47 46 45 43 41 40 41 41 40 41 41 41 41 41 40 38 37 37 36 36 36 37 37 37 38 38 39 40 41 41 42 42 43 43 43 44 44 44 44 43 43 42 41 40 39 39 38 37 36
46 45 44 43 40 39 39 39 39 39 40 41 41 41 40 40 39 39 38 38 38 38 38 38 39 40 41 41 42 43 43 44 45 46 47 47 47 47 47 46 45 45 44 44 43 42 41 40 39
45 45 44 43 41 39 38 38 38 38 39 40 40 40 41 41 41 40 40 39 39 39 40 40 41 41 42 42 43 44 45 46 47 48 48 48 49 49 49 49 49 48 48 47 47 46 45 44 43
45 44 44 42 41 40 38 38 38 37 38 39 39 40 41 41 41 41 41 41 41 41 41 42 42 42 43 44 45 46 47 47 48 48 49 49 51 51 52 52 52 52 51 51 50 50 49 48 47
44 44 43 42 41 41 40 39 39 38 38 38 39 39 40 41 41 42 42 42 42 42 42 42 43 43 44 44 45 46 47 48 48 49 50 51 52 53 54 54 55 54 54 53 53 52 52 51 50
42 43 43 43 42 41 40 40 40 38 38 38 38 39 39 40 41 41 42 42 42 42 42 42 42 43 43 44 45 46 46 47 48 50 51 52 53 54 55 56 57 58 57 56 56 55 55 54 53
39 40 41 42 42 41 39 39 39 37 36 36 37 37 37 38 39 39 40 40 40 41 41 41 41 41 42 43 44 46 47 48 50 51 52 54 55 57 58 59 60 60 60 59 59 59 58 57 56
34 35 37 38 40 40 38 37 38 36 35 34 34 35 35 35 35 36 37 37 37 38 38 39 39 40 42 43 45 47 48 50 52 53 55 56 58 59 60 62 63 63 63 63 63 62 61 60 60
30 31 33 34 35 35 35 35 34 33 32 32 31 31 31 32 32 33 33 34 34 35 36 37 39 41 42 44 46 48 50 52 54 56 58 60 61 62 63 64 65 65 66 66 66 65 64 63 63
26 28 29 30 30 29 30 31 30 29 29 28 28 28 28 29 29 30 31 31 32 33 35 37 38 40 42 44 46 48 50 53 55 58 61 63 64 65 66 67 68 67 67 66 66 65 65 64 64
25 26 27 27 26 25 25 25 25 25 25 25 25 25 26 26 27 28 29 30 31 33 34 35 37 38 40 42 44 47 50 53 56 59 61 63 65 65 66 66 67 67 67 66 65 64 63 63 63
24 25 25 25 25 24 23 24 23 23 23 23 23 24 24 25 26 27 28 29 30 31 32 33 34 35 37 39 42 44 47 50 53 55 57 59 61 62 64 64 64 64 63 63 62 61 61 60 61
23 23 24 24 23 22 22 23 22 22 22 22 22 23 24 25 26 26 27 28 28 29 29 30 31 32 34 35 37 40 43 45 46 47 49 51 53 54 56 57 58 58 58 57 56 56 57 57 57
Wind_Direction
217 217 217 218 219 219 219 219 220 221 222 224 226 228 231 234 237 241 243 246 250 253 257 261 263 264 265 267 269 271 271 270 271 272 273 275 277 279 279 278 277 277 277 277 277 278 280 282 283
218 218 218 218 219 218 219 220 222 222 223 224 227 229 232 235 238 242 244 247 252 256 260 263 266 268 267 268 270 272 274 274 275 275 277 279 281 282 283 283 283 283 282 281 281 281 282 283 284
220 219 219 219 218 217 218 221 223 223 224 226 228 230 233 236 239 242 244 247 252 256 260 265 268 270 270 270 271 274 277 279 280 281 282 283 284 285 286 287 286 287 286 286 284 284 284 284 284
221 220 220 219 217 216 219 222 223 223 224 226 228 231 233 235 238 240 242 246 250 254 259 264 268 271 273 274 275 277 279 281 283 285 286 287 288 288 288 288 288 287 287 287 287 287 286 286 285
221 221 220 218 215 215 218 221 223 223 224 225 227 229 231 233 235 238 240 244 248 253 258 262 266 270 274 276 276 276 278 280 282 284 286 286 287 288 288 288 287 287 287 287 288 288 288 288 287
221 221 221 217 213 214 217 220 222 222 223 223 225 227 229 230 232 235 238 242 247 252 257 261 265 268 272 274 275 275 276 279 281 282 283 284 285 286 287 287 287 287 286 287 288 289 289 289 288
220 220 221 216 211 212 215 218 220 220 221 222 223 226 228 229 232 235 239 243 247 251 255 259 263 266 268 270 272 274 275 277 280 281 281 282 283 284 285 286 286 286 286 286 287 288 289 289 289
219 220 219 214 210 210 214 218 219 220 221 222 223 226 229 231 234 237 241 245 248 252 255 258 261 263 266 268 270 272 274 275 277 279 280 280 281 282 283 284 285 285 286 286 286 286 287 287 287
219 219 217 213 209 209 214 218 219 221 223 224 224 228 231 234 236 240 243 246 249 251 254 257 259 261 264 266 269 271 272 274 275 276 278 279 279 280 281 282 283 283 284 285 285 285 285 285 285
218 218 216 212 209 208 213 218 220 222 224 226 227 229 232 235 238 240 243 245 248 251 253 256 259 260 262 265 267 269 271 272 273 275 276 277 278 279 280 281 281 282 283 283 283 283 283 283 283
217 218 215 212 209 209 212 218 221 224 225 227 229 231 234 237 239 241 243 245 248 251 253 255 257 259 261 263 265 267 269 270 271 272 274 276 278 278 279 280 281 281 281 281 282 282 281 281 281
217 217 216 214 212 211 213 218 222 226 229 230 232 234 236 238 239 242 244 246 248 251 253 255 257 259 260 262 264 265 267 268 269 271 272 274 276 277 278 279 279 280 280 280 280 280 280 280 281
216 216 216 216 214 213 215 218 223 227 231 233 234 235 237 237 238 241 243 245 247 249 252 254 256 259 261 263 264 265 266 267 269 270 271 272 274 275 277 277 278 278 278 278 278 278 278 279 279
215 217 218 217 216 215 216 219 223 228 233 235 236 237 238 238 238 240 241 243 246 249 252 255 258 260 263 265 266 267 268 268 269 270 270 271 272 273 274 275 276 276 276 277 277 277 277 277 277
215 218 218 218 218 217 218 220 224 228 233 236 238 239 239 240 240 240 241 243 246 249 253 256 259 262 264 265 266 267 268 269 270 271 271 272 272 273 273 274 274 274 275 275 275 276 276 276 276
215 217 218 218 219 219 220 221 225 229 234 237 239 240 241 241 241 241 242 243 246 250 253 257 260 263 265 267 267 268 268 269 270 271 272 273 273 273 273 273 273 273 273 274 274 275 275 275 275
214 216 217 218 220 221 221 222 226 230 234 237 240 241 242 242 242 242 243 245 248 251 255 259 262 264 266 267 268 269 270 271 271 272 272 272 272 272 273 273 272 272 272 273 273 273 273 273 274
215 216 217 218 220 221 222 223 226 231 233 236 239 241 243 244 245 245 247 248 250 253 257 260 263 264 266 267 268 269 270 271 272 272 271 271 270 270 271 271 272 272 272 272 272 272 272 272 273
213 215 217 219 220 221 222 224 227 230 233 236 239 241 244 246 248 249 251 252 254 256 259 261 263 265 266 267 267 268 269 270 270 271 271 271 271 271 271 271 270 270 270 270 270 270 271 271 271
211 215 217 219 221 223 224 226 229 232 234 236 239 241 244 247 250 252 255 257 258 260 262 263 265 266 267 267 267 268 268 269 270 271 271 272 272 271 271 270 269 268 268 268 268 269 269 269 271
210 214 218 221 223 225 227 230 232 234 236 238 241 243 246 249 252 254 257 260 262 264 265 267 267 268 268 268 268 268 269 269 270 271 271 270 269 268 268 268 268 267 267 267 267 267 268 268 269
211 215 218 222 224 227 229 234 235 237 238 240 243 246 248 251 254 256 259 262 265 267 268 269 270 270 270 270 270 270 270 270 270 270 269 269 269 269 268 267 267 266 266 266 265 265 266 267 268
212 215 219 222 226 229 231 236 238 240 242 243 245 248 250 253 255 258 261 264 266 268 270 271 271 271 272 272 272 272 272 271 270 270 269 269 268 267 266 266 265 265 264 264 264 263 264 265 266
211 215 219 223 227 231 233 237 241 242 244 245 247 249 251 254 257 260 262 264 267 269 270 271 272 273 273 274 274 274 274 274 273 272 271 269 268 267 266 265 264 263 262 262 261 261 262 262 263
209 213 217 222 227 231 234 238 242 243 245 247 248 250 252 254 257 259 261 264 266 268 270 272 274 275 276 277 277 277 277 276 276 274 273 271 270 268 267 265 263 262 261 260 260 259 259 260 261
207 211 215 220 226 229 232 236 239 241 243 245 247 249 251 253 255 258 260 263 267 269 272 275 277 278 279 280 280 280 280 279 279 277 276 274 272 270 268 266 264 262 261 260 260 259 259 259 260
205 208 213 218 222 225 227 232 235 237 239 241 243 245 248 251 254 257 261 264 268 271 274 276 278 280 281 283 284 284 284 283 281 280 278 276 274 272 269 267 265 263 261 260 259 259 259 259 259
207 208 211 214 218 221 224 226 229 231 233 236 239 242 246 251 255 259 263 266 269 272 275 277 280 282 284 286 286 287 287 285 283 282 280 277 275 272 270 268 266 264 262 260 259 258 258 258 259
211 212 213 215 218 220 220 223 224 227 230 233 237 241 246 251 256 260 265 269 272 274 277 280 283 285 287 289 290 291 291 290 288 286 283 280 277 274 271 268 267 265 262 260 259 258 257 257 258
215 215 215 216 217 218 220 222 222 225 229 233 237 242 248 253 258 263 267 270 273 276 279 282 286 288 291 293 295 297 298 297 294 291 289 286 282 278 273 269 267 265 262 261 259 258 256 256 257
Height
5818 5823 5828 5833 5838 5842 5846 5851 5853 5855 5859 5862 5864 5867 5870 5873 5876 5879 5879 5879 5880 5881 5882 5883 5884 5884 5885 5885 5885 5885 5885 5885 5885 5884 5884 5884 5883 5882 5882 5881 5880 5880 5879 5878 5878 5877 5877 5877 5876
5811 5817 5822 5827 5832 5837 5843 5846 5848 5851 5855 5858 5861 5864 5866 5869 5872 5874 5875 5876 5877 5878 5879 5880 5881 5882 5882 5883 5883 5883 5883 5882 5882 5882 5882 5881 5880 5880 5879 5878 5878 5877 5876 5875 5875 5874 5874 5874 5874
5805 5810 5816 5820 5826 5833 5838 5840 5843 5847 5851 5854 5857 5860 5863 5866 5868 5870 5872 5873 5874 5875 5876 5877 5878 5879 5879 5880 5880 5880 5880 5880 5879 5879 5879 5878 5878 5877 5876 5875 5875 5874 5873 5872 5872 5871 5871 5870 5870
5798 5803 5809 5815 5822 5829 5832 5834 5837 5842 5846 5849 5853 5856 5859 5862 5865 5867 5869 5870 5871 5872 5873 5874 5875 5876 5876 5877 5877 5877 5877 5877 5876 5876 5876 5875 5874 5874 5873 5872 5872 5871 5870 5869 5869 5868 5867 5867 5867
5789 5795 5801 5808 5818 5824 5826 5828 5832 5837 5841 5845 5849 5852 5855 5858 5861 5863 5865 5867 5868 5869 5870 5871 5872 5872 5873 5873 5874 5874 5873 5873 5873 5873 5872 5872 5871 5870 5870 5869 5868 5868 5867 5866 5865 5865 5864 5864 5863
5783 5789 5795 5804 5814 5818 5820 5823 5827 5832 5836 5840 5844 5847 5851 5854 5857 5859 5861 5863 5865 5866 5866 5867 5868 5869 5869 5870 5870 5870 5870 5869 5869 5869 5869 5868 5868 5867 5866 5866 5865 5864 5863 5863 5862 5861 5861 5860 5860
5777 5783 5790 5800 5808 5812 5815 5817 5822 5827 5831 5835 5840 5843 5846 5850 5853 5855 5857 5859 5860 5861 5862 5863 5864 5864 5865 5865 5866 5866 5866 5865 5865 5865 5865 5865 5864 5863 5863 5862 5861 5861 5860 5859 5858 5858 5857 5857 5856
5770 5777 5783 5793 5801 5807 5809 5812 5817 5821 5826 5831 5835 5839 5842 5846 5848 5850 5853 5854 5856 5857 5858 5859 5859 5860 5860 5861 5861 5861 5861 5861 5861 5861 5861 5861 5860 5859 5859 5858 5858 5857 5856 5855 5854 5854 5853 5853 5852
5763 5770 5778 5789 5796 5801 5803 5807 5811 5816 5821 5825 5830 5834 5838 5841 5843 5846 5848 5850 5851 5852 5853 5854 5855 5855 5856 5856 5856 5856 5857 5857 5856 5856 5856 5856 5856 5855 5855 5854 5854 5853 5852 5851 5851 5850 5849 5848 5848
5755 5764 5775 5783 5790 5795 5797 5801 5806 5811 5815 5820 5825 5829 5832 5835 5838 5840 5842 5844 5846 5847 5849 5850 5850 5851 5851 5851 5852 5852 5852 5852 5852 5852 5852 5851 5851 5851 5851 5850 5849 5849 5848 5847 5846 5845 5845 5844 5843
5750 5759 5768 5775 5781 5787 5791 5795 5800 5805 5809 5814 5819 5823 5827 5830 5832 5835 5837 5839 5841 5842 5844 5845 5845 5846 5846 5846 5847 5847 5847 5847 5847 5847 5847 5847 5847 5846 5846 5846 5845 5844 5843 5842 5841 5841 5840 5839 5838
5745 5753 5761 5768 5774 5780 5785 5790 5794 5799 5803 5808 5813 5817 5821 5824 5827 5829 5831 5834 5836 5837 5839 5839 5840 5841 5841 5841 5842 5842 5842 5842 5842 5842 5842 5842 5842 5842 5841 5841 5840 5839 5838 5838 5837 5836 5835 5834 5833
5738 5746 5754 5760 5767 5773 5779 5784 5788 5793 5797 5802 5807 5811 5815 5818 5821 5824 5826 5828 5830 5832 5833 5834 5835 5835 5836 5836 5837 5837 5837 5837 5837 5837 5837 5837 5836 5836 5836 5835 5835 5834 5833 5832 5832 5831 5830 5829 5828
5732 5739 5746 5753 5760 5767 5773 5778 5783 5788 5791 5796 5800 5805 5809 5812 5816 5818 5821 5823 5825 5826 5827 5828 5829 5830 5831 5831 5832 5832 5832 5831 5831 5831 5831 5831 5831 5830 5830 5830 5829 5829 5828 5827 5826 5825 5824 5823 5823
5724 5732 5738 5746 5753 5761 5767 5773 5778 5782 5785 5790 5794 5799 5803 5806 5810 5813 5815 5817 5819 5820 5821 5823 5823 5824 5825 5825 5826 5826 5826 5825 5825 5825 5825 5825 5825 5825 5824 5824 5823 5822 5821 5821 5820 5819 5818 5817 5817
5715 5723 5732 5741 5748 5755 5762 5769 5772 5775 5779 5784 5788 5792 5796 5800 5804 5807 5809 5811 5813 5815 5816 5817 5818 5819 5819 5819 5819 5819 5819 5819 5819 5819 5819 5819 5819 5818 5817 5817 5816 5815 5815 5814 5814 5813 5812 5811 5810
5708 5719 5729 5737 5743 5749 5756 5763 5766 5769 5773 5777 5781 5785 5789 5793 5797 5800 5803 5805 5807 5809 5810 5811 5812 5813 5813 5813 5813 5813 5812 5812 5812 5812 5812 5812 5811 5810 5810 5809 5809 5808 5808 5807 5807 5806 5805 5804 5804
5709 5717 5725 5731 5737 5744 5750 5756 5760 5762 5767 5770 5774 5778 5782 5786 5790 5793 5796 5799 5801 5803 5804 5805 5805 5806 5806 5805 5805 5805 5805 5804 5804 5804 5803 5803 5802 5802 5801 5801 5801 5800 5800 5800 5799 5798 5797 5797 5796
5704 5711 5718 5725 5731 5738 5743 5749 5753 5756 5760 5764 5768 5771 5775 5779 5782 5785 5788 5791 5793 5795 5797 5797 5798 5798 5798 5798 5797 5797 5797 5796 5795 5795 5794 5793 5793 5793 5792 5792 5792 5791 5791 5790 5789 5789 5789 5788 5788
5698 5705 5711 5719 5725 5732 5737 5742 5746 5750 5754 5758 5762 5765 5769 5772 5775 5778 5780 5783 5785 5786 5788 5789 5789 5789 5789 5789 5789 5788 5787 5787 5786 5785 5784 5783 5783 5782 5782 5781 5781 5781 5780 5780 5780 5779 5779 5779 5779
5693 5700 5707 5714 5720 5726 5732 5736 5739 5744 5748 5752 5755 5759 5762 5765 5768 5770 5772 5774 5776 5777 5779 5779 5780 5780 5780 5779 5779 5779 5778 5777 5777 5775 5774 5773 5771 5770 5770 5770 5769 5769 5769 5769 5769 5768 5768 5768 5768
5689 5695 5702 5709 5715 5720 5726 5729 5733 5737 5742 5746 5749 5752 5755 5758 5760 5762 5764 5766 5767 5768 5769 5770 5770 5770 5769 5769 5769 5768 5768 5767 5766 5764 5763 5761 5760 5759 5758 5757 5756 5756 5756 5757 5757 5757 5757 5756 5757
5684 5691 5697 5703 5709 5714 5719 5723 5727 5731 5736 5739 5743 5745 5748 5750 5752 5754 5756 5757 5758 5759 5760 5760 5759 5759 5759 5758 5757 5757 5756 5755 5754 5752 5751 5750 5748 5747 5746 5744 5743 5743 5743 5744 5744 5744 5744 5744 5745
5680 5686 5692 5697 5702 5708 5713 5717 5721 5725 5729 5732 5735 5738 5741 5743 5744 5746 5747 5748 5749 5750 5750 5750 5749 5748 5748 5747 5746 5745 5744 5742 5741 5739 5738 5736 5735 5733 5732 5731 5729 5729 5729 5730 5730 5730 5731 5732 5732
5677 5683 5688 5692 5696 5702 5707 5710 5715 5719 5722 5725 5728 5731 5733 5735 5736 5738 5739 5740 5740 5740 5740 5740 5739 5738 5737 5736 5734 5732 5731 5729 5727 5725 5723 5721 5720 5718 5717 5715 5714 5714 5714 5714 5714 5715 5717 5718 5718
5673 5678 5684 5688 5692 5696 5700 5703 5708 5712 5715 5717 5720 5723 5725 5727 5728 5729 5730 5731 5731 5731 5731 5730 5729 5728 5726 5724 5722 5720 5717 5715 5712 5709 5706 5704 5702 5701 5699 5697 5696 5696 5697 5697 5698 5700 5702 5703 5704
5670 5674 5679 5683 5687 5691 5694 5698 5702 5705 5708 5711 5713 5715 5717 5719 5720 5721 5722 5723 5723 5722 5722 5721 5719 5717 5715 5713 5710 5707 5704 5700 5697 5693 5689 5685 5683 5680 5678 5677 5677 5677 5678 5679 5681 5683 5686 5688 5690
5668 5671 5675 5679 5682 5686 5689 5692 5696 5699 5701 5704 5706 5708 5710 5711 5712 5713 5714 5714 5714 5714 5713 5712 5710 5708 5705 5702 5699 5695 5690 5686 5681 5676 5671 5667 5663 5659 5657 5656 5656 5656 5658 5660 5663 5666 5669 5672 5675
5665 5668 5671 5674 5678 5682 5685 5690 5691 5693 5696 5698 5700 5702 5703 5704 5705 5706 5706 5706 5706 5705 5704 5703 5701 5698 5695 5692 5688 5683 5678 5672 5666 5660 5653 5648 5643 5639 5636 5635 5635 5636 5639 5642 5645 5649 5653 5656 5660
5661 5664 5667 5671 5674 5677 5680 5686 5686 5688 5691 5693 5694 5696 5697 5698 5698 5699 5699 5699 5698 5697 5696 5694 5692 5689 5686 5682 5677 5672 5665 5658 5651 5644 5637 5630 5625 5621 5618 5617 5617 5618 5621 5625 5629 5633 5637 5641 5645